[[{"header":{"parameterUnit":"m.s-1","parameterCategory":1,"la1":30.2991,"la2":30.254,"lo1":-89.0895,"lo2":-89.0444,"dy":0.0017,"dx":0.0017,"nx":28,"ny":28,"refTime":"2024-12-01T09:00:00:Z","depth":0,"parameterNumber":2,"parameterNumberName":"U-component_of_WINDS"},"data":[0,0,0,0,0,0,0,0,0,0,0,0,0,0,0,0,0,0,0,0,0,0,0,0,0,0,0,0,0,0,0,0,0,0,0,0,0,0,0,0,0,0,0,0,0,0,0,0,0,0,0,0,0,0,0,0,0,0,0.9998,0.9999,0,1.0024,1.0024,1.0024,1.0036,1.0036,1.0036,1.0036,1.0062,1.0062,1.0063,0,0,0,0,0,0,0,0,0,0,0,0,0,0.9959,0.996,0.9998,0.9999,0.9999,1.0024,1.0024,1.0024,1.0036,1.0036,1.0036,1.0036,1.0061,1.0062,1.0063,0,0,0,0,0,0,0,0,0,0,0,0,0,0.998,0.996,0.9998,1.0008,1.0009,1.0024,1.0024,1.0024,1.0036,1.0036,1.0036,1.0036,1.0061,1.0062,1.0063,1.007,0,0,1.0066,1.0067,0,0,0,0,0,0,0,0,0.9978,0.9981,1.0006,1.0007,1.0009,1.0027,1.002,1.004,1.0036,1.0026,1.0036,1.0036,1.005,1.0052,1.0057,1.0071,1.0072,1.0066,1.0067,1.0067,1.0068,0,0,0,0,0,0,0,0.9977,0.998,1.0008,1.0006,1.0008,1.0011,1.0014,1.0023,1.0038,1.0027,1.0028,1.0031,1.0051,1.0056,1.0057,1.0072,1.0066,1.0067,1.0068,1.0068,1.0093,1.0093,0,0,0,0,0,0,0.9974,0.9979,1.0007,1.0009,0.9993,1.0011,1.0015,1.0021,1.0038,1.004,1.0031,1.0031,1.0054,1.0056,1.0058,1.0067,1.0067,1.0068,1.0069,1.0093,1.0093,1.0093,0,0,0,0,0,0,0.9973,0.9977,1.0006,0.9994,0.9998,1.0012,1.0019,1.0022,1.0027,1.0041,1.0043,1.0033,1.0054,1.0057,1.0067,1.0068,1.0069,1.007,1.0093,1.0093,1.0093,1.0085,0,0,0,0,0,0,0.9972,0.9976,0.9979,0.9994,0.9999,1.0015,1.0019,1.0022,1.0028,1.0029,1.0044,1.0046,1.0054,1.0065,1.0068,1.007,1.0071,1.0093,1.0093,1.0093,1.0085,1.0085,1.0084,0,0,0,0,0,0.9971,0.9975,0.9979,0.9982,1.0003,1.0015,1.0017,1.0027,1.0028,1.0031,1.004,1.0046,1.0068,1.0066,1.0069,1.0071,1.0093,1.0093,1.0093,1.0085,1.0085,1.0084,0,0,0,0,0,0,0.9959,0.9977,0.9982,0.9992,1.0002,1.0017,1.0021,1.0026,1.0036,1.0036,1.0047,1.0051,1.006,1.0066,1.0064,1.0079,1.0081,1.0082,1.0074,1.0074,1.0073,1.0071,1.0071,0,0,0,0,0,0.9958,0.9967,0.9982,0.9989,0.9994,1.0006,1.0012,1.0019,1.0029,1.0034,1.0043,1.0053,1.0063,1.0068,1.0078,1.0086,1.009,1.0089,1.0089,1.0089,1.0089,1.0094,1.0094,1.0094,1.0094,1.0094,0,0,0.9956,0.9967,0.9971,0.9987,0.9996,1.0004,1.001,1.0019,1.0025,1.0035,1.0045,1.0053,1.0064,1.0074,1.0078,1.008,1.009,1.0089,1.0088,1.0089,1.0094,1.0095,1.0095,1.0094,1.0094,1.0094,0,0,0.9955,0.9964,0.9971,0.998,0.9993,1.0001,1.0003,1.0018,1.0023,1.0033,1.0041,1.0049,1.0064,1.0073,1.0079,1.0082,1.0087,1.0085,1.0083,1.0088,1.0088,1.0088,1.0089,1.0089,1.0085,1.0085,1.0085,0,0.995,0.9964,0.9974,0.9983,0.999,0.9999,1.0007,1.0014,1.0029,1.0034,1.0035,1.0055,1.0064,1.0076,1.0076,1.0081,1.0083,1.0083,1.0087,1.0087,1.0087,1.0089,1.0089,1.0085,1.0085,1.0085,1.0085,0,0.9957,0.9966,0.997,0.9985,0.9992,1.0,1.0012,1.0018,1.0024,1.0032,1.0043,1.0053,1.0065,1.0068,1.0074,1.0081,1.0081,1.0085,1.0087,1.0087,1.0088,1.0089,1.0084,1.0084,1.0084,1.0084,0,0,0.995,0.9971,0.9972,0.9979,0.9995,1.0002,1.001,1.0022,1.0027,1.0037,1.0044,1.0057,1.0061,1.0068,1.0075,1.0079,1.0081,1.0082,1.0082,1.0081,1.0089,1.0086,1.0087,1.0085,1.0085,1.0085,1.0088,0,0.9952,0.9967,0.9977,0.9988,0.9997,1.0007,1.0014,1.0024,1.0032,1.004,1.0048,1.0058,1.0061,1.0066,1.0071,1.008,1.0083,1.008,1.0091,1.0091,1.0088,1.0088,1.0085,1.0087,1.0089,1.0089,1.0089,0,0.9956,0.9966,0.9978,0.9993,0.9997,1.0003,1.0015,1.0023,1.0035,1.004,1.0048,1.0055,1.0064,1.0066,1.0078,1.0076,1.0081,1.0087,1.0087,1.0088,1.009,1.0089,1.0088,1.0089,1.009,1.009,1.009,0,0.995,0.9967,0.9976,0.9982,0.9999,1.0003,1.0011,1.0022,1.0029,1.0039,1.0043,1.0054,1.006,1.0069,1.0079,1.0079,1.009,1.0093,1.0095,1.0095,1.0097,1.0096,1.0097,1.01,1.01,1.01,1.01,0,0.995,0.9958,0.9974,0.998,0.9988,0.9999,1.0007,1.0015,1.0026,1.0033,1.0042,1.0049,1.0061,1.007,1.0078,1.0087,1.009,1.0094,1.0096,1.0093,1.0093,1.0097,1.0097,1.01,1.01,1.01,1.01,0,0.9945,0.9956,0.9967,0.9983,0.9987,0.9992,1.0005,1.0011,1.002,1.0029,1.0032,1.0045,1.0056,1.0066,1.008,1.0086,1.0095,1.0097,1.0091,1.0092,1.0094,1.0093,1.0097,1.0098,1.01,1.01,1.01,0,0.9945,0.995,0.9967,0.9973,0.998,0.9989,0.9996,1.0007,1.0014,1.0028,1.0032,1.0043,1.0053,1.0069,1.008,1.0091,1.0094,1.0094,1.0095,1.0092,1.0094,1.0093,1.0094,1.0094,1.0094,1.0094,1.0093,0,0.9943,0.9948,0.9958,0.997,0.9978,0.9987,0.9997,1.0002,1.0015,1.0022,1.0033,1.0041,1.0055,1.0066,1.0078,1.0086,1.0092,1.0093,1.0094,1.0091,1.0087,1.009,1.009,1.0093,1.0093,1.0093,1.0093,1.0093,0.994,0.9946,0.9958,0.9969,0.9978,0.9987,0.9993,1.0003,1.0012,1.0025,1.0031,1.0042,1.0054,1.0071,1.0078,1.0087,1.0089,1.009,1.0091,1.0091,1.009,1.0086,1.0089,1.0089,1.0089,1.0089,1.0089,0,0.9939,0.9948,0.9957,0.9971,0.998,0.9985,0.9996,1.0003,1.0013,1.0023,1.0032,1.0045,1.0056,1.0067,1.0079,1.0084,1.0087,1.0086,1.0086,1.0088,1.0088,1.0086,1.0084,1.0084,1.0084,1.0084,1.0084,1.0084,0.9939,0.9949,0.9956,0.9971,0.9979,0.999,0.9996,1.0005,1.0013,1.0027,1.0036,1.0044,1.0055,1.0067,1.0078,1.0081,1.0085,1.0083,1.0087,1.0087,1.0088,1.0088,1.0086,1.0084,1.0084,1.0086,1.0086,1.0086]},{"header":{"parameterUnit":"m.s-1","parameterCategory":1,"la1":30.2991,"la2":30.254,"lo1":-89.0895,"lo2":-89.0444,"dy":0.0017,"dx":0.0017,"nx":28,"ny":28,"refTime":"2024-12-01T09:00:00:Z","depth":0,"parameterNumber":3,"parameterNumberName":"V-component_of_WINDS"},"data":[0,0,0,0,0,0,0,0,0,0,0,0,0,0,0,0,0,0,0,0,0,0,0,0,0,0,0,0,0,0,0,0,0,0,0,0,0,0,0,0,0,0,0,0,0,0,0,0,0,0,0,0,0,0,0,0,0,0,-0.9598,-0.9599,0,-0.9681,-0.9682,-0.9683,-0.9734,-0.9734,-0.9734,-0.9735,-0.9818,-0.982,-0.9822,0,0,0,0,0,0,0,0,0,0,0,0,0,-0.9483,-0.9485,-0.9598,-0.9599,-0.96,-0.9681,-0.9682,-0.9683,-0.9734,-0.9734,-0.9734,-0.9735,-0.9817,-0.9819,-0.9822,0,0,0,0,0,0,0,0,0,0,0,0,0,-0.9546,-0.9486,-0.9598,-0.9635,-0.9639,-0.968,-0.9682,-0.9683,-0.9734,-0.9734,-0.9734,-0.9735,-0.9816,-0.9819,-0.9822,-0.9832,0,0,-0.9831,-0.9832,0,0,0,0,0,0,0,0,-0.9543,-0.955,-0.9629,-0.9633,-0.9637,-0.9697,-0.9672,-0.9733,-0.9734,-0.9698,-0.9735,-0.9735,-0.9777,-0.9784,-0.9798,-0.9836,-0.984,-0.9831,-0.9833,-0.9834,-0.9835,0,0,0,0,0,0,0,-0.9538,-0.9547,-0.9631,-0.963,-0.9635,-0.9648,-0.9657,-0.9684,-0.9734,-0.9701,-0.9705,-0.9714,-0.978,-0.9795,-0.98,-0.9841,-0.9831,-0.9834,-0.9836,-0.9837,-0.9892,-0.9892,0,0,0,0,0,0,-0.9528,-0.9543,-0.9628,-0.9633,-0.959,-0.9649,-0.966,-0.9678,-0.9734,-0.9743,-0.9714,-0.9716,-0.979,-0.9797,-0.9804,-0.982,-0.9834,-0.9837,-0.9839,-0.9892,-0.9892,-0.9892,0,0,0,0,0,0,-0.9525,-0.9535,-0.9625,-0.9589,-0.9602,-0.9651,-0.9671,-0.9679,-0.9695,-0.9744,-0.9753,-0.972,-0.979,-0.9799,-0.9825,-0.9823,-0.9839,-0.9841,-0.9893,-0.9892,-0.9892,-0.9851,0,0,0,0,0,0,-0.9522,-0.9534,-0.9538,-0.9589,-0.9603,-0.9645,-0.967,-0.968,-0.97,-0.9704,-0.9752,-0.9761,-0.9792,-0.982,-0.9828,-0.9828,-0.9843,-0.9893,-0.9892,-0.9892,-0.9853,-0.9849,-0.9846,0,0,0,0,0,-0.9518,-0.9523,-0.9538,-0.9548,-0.961,-0.9645,-0.9653,-0.9689,-0.9699,-0.9704,-0.9736,-0.9759,-0.9822,-0.9822,-0.9831,-0.9832,-0.9893,-0.9893,-0.9892,-0.9854,-0.985,-0.9847,0,0,0,0,0,0,-0.947,-0.953,-0.9548,-0.957,-0.9602,-0.9653,-0.966,-0.9683,-0.9712,-0.9715,-0.9758,-0.9768,-0.979,-0.9813,-0.9813,-0.9845,-0.986,-0.9861,-0.9829,-0.9825,-0.9822,-0.9816,-0.9846,0,0,0,0,0,-0.9462,-0.9486,-0.9537,-0.9552,-0.9567,-0.9611,-0.9627,-0.9652,-0.9687,-0.97,-0.9734,-0.9766,-0.9794,-0.9811,-0.9838,-0.9857,-0.9868,-0.9861,-0.9858,-0.9855,-0.9856,-0.9868,-0.9866,-0.9889,-0.9889,-0.9889,0,0,-0.9446,-0.9482,-0.9494,-0.9543,-0.9571,-0.9594,-0.9622,-0.9645,-0.9663,-0.9704,-0.973,-0.9756,-0.9795,-0.9817,-0.9829,-0.9838,-0.9852,-0.9854,-0.9852,-0.9854,-0.9867,-0.9865,-0.9863,-0.9889,-0.9889,-0.9889,0,0,-0.9429,-0.9458,-0.9474,-0.9502,-0.9543,-0.9573,-0.9576,-0.9625,-0.9644,-0.9671,-0.9703,-0.9724,-0.977,-0.9797,-0.9816,-0.981,-0.9833,-0.9818,-0.9801,-0.9812,-0.981,-0.9809,-0.9807,-0.9806,-0.9818,-0.9818,-0.9818,0,-0.9404,-0.9441,-0.9479,-0.9501,-0.9522,-0.9561,-0.9577,-0.9602,-0.965,-0.9663,-0.9673,-0.9732,-0.9761,-0.979,-0.9789,-0.9803,-0.9809,-0.9812,-0.9808,-0.9807,-0.9806,-0.9805,-0.9804,-0.9816,-0.9816,-0.9816,-0.9816,0,-0.9408,-0.9433,-0.944,-0.9487,-0.9509,-0.9527,-0.9569,-0.9586,-0.9609,-0.9637,-0.9665,-0.9701,-0.9737,-0.9746,-0.9769,-0.9779,-0.9783,-0.9799,-0.9816,-0.9801,-0.9801,-0.9801,-0.9813,-0.9814,-0.9814,-0.9815,0,0,-0.9363,-0.9431,-0.9434,-0.9456,-0.9505,-0.9525,-0.9545,-0.9582,-0.9596,-0.9628,-0.9646,-0.9685,-0.97,-0.9723,-0.9748,-0.9758,-0.9752,-0.9774,-0.9775,-0.9769,-0.9766,-0.9754,-0.9753,-0.9767,-0.9767,-0.9767,-0.9763,0,-0.9354,-0.9394,-0.9429,-0.9456,-0.948,-0.9517,-0.9536,-0.9568,-0.9594,-0.9619,-0.9648,-0.9675,-0.9693,-0.9707,-0.9718,-0.975,-0.9752,-0.9751,-0.9785,-0.9786,-0.9775,-0.9753,-0.974,-0.9735,-0.9763,-0.9763,-0.9763,0,-0.9348,-0.938,-0.9409,-0.9457,-0.9468,-0.9484,-0.952,-0.9542,-0.958,-0.9599,-0.9624,-0.9651,-0.9675,-0.9688,-0.9722,-0.972,-0.9736,-0.9754,-0.9755,-0.976,-0.9774,-0.9758,-0.9734,-0.9733,-0.9763,-0.9763,-0.9763,0,-0.9314,-0.9363,-0.9387,-0.9405,-0.9461,-0.9471,-0.9495,-0.9533,-0.9552,-0.9584,-0.9597,-0.963,-0.9649,-0.9674,-0.971,-0.9716,-0.974,-0.9756,-0.9756,-0.9755,-0.976,-0.9759,-0.9739,-0.9769,-0.9769,-0.9769,-0.9769,0,-0.93,-0.9317,-0.9373,-0.9388,-0.9407,-0.9448,-0.9466,-0.9493,-0.9527,-0.9547,-0.9582,-0.96,-0.9646,-0.967,-0.9698,-0.9722,-0.973,-0.9746,-0.9754,-0.9744,-0.9742,-0.9755,-0.9757,-0.9769,-0.9769,-0.9769,-0.9769,0,-0.9265,-0.9303,-0.9332,-0.9383,-0.9396,-0.9408,-0.9452,-0.9468,-0.9497,-0.9523,-0.9531,-0.9576,-0.9607,-0.9645,-0.9687,-0.9706,-0.9727,-0.9738,-0.9715,-0.9719,-0.9718,-0.9718,-0.9705,-0.9706,-0.9735,-0.9735,-0.9734,0,-0.9254,-0.9268,-0.932,-0.9337,-0.936,-0.9386,-0.9406,-0.9447,-0.9467,-0.9511,-0.9521,-0.9554,-0.9583,-0.963,-0.9666,-0.9699,-0.9711,-0.9705,-0.9717,-0.9706,-0.9712,-0.9711,-0.9713,-0.9702,-0.9701,-0.9701,-0.9701,0,-0.9231,-0.9249,-0.9278,-0.9313,-0.9336,-0.9365,-0.9396,-0.9408,-0.9455,-0.9475,-0.9507,-0.9529,-0.9573,-0.9606,-0.9643,-0.9667,-0.9692,-0.9697,-0.9699,-0.9689,-0.9675,-0.9683,-0.9708,-0.9697,-0.9697,-0.9698,-0.9698,-0.9698,-0.9208,-0.9223,-0.9262,-0.9293,-0.932,-0.9348,-0.9366,-0.9397,-0.9425,-0.9464,-0.9486,-0.9517,-0.9555,-0.9608,-0.9631,-0.9656,-0.9665,-0.9668,-0.9669,-0.9669,-0.9666,-0.9671,-0.9663,-0.9663,-0.9663,-0.9663,-0.9664,0,-0.9188,-0.9215,-0.9243,-0.9285,-0.9309,-0.933,-0.9366,-0.9384,-0.9412,-0.9445,-0.9472,-0.9509,-0.9541,-0.958,-0.9615,-0.9627,-0.964,-0.9635,-0.9635,-0.964,-0.9655,-0.9651,-0.9625,-0.9625,-0.9625,-0.9625,-0.9625,-0.9625,-0.918,-0.9205,-0.9228,-0.9268,-0.9295,-0.9327,-0.9345,-0.9371,-0.9398,-0.9438,-0.9465,-0.949,-0.9526,-0.9563,-0.9594,-0.9605,-0.9616,-0.9608,-0.9622,-0.9636,-0.9639,-0.9642,-0.9638,-0.961,-0.961,-0.9605,-0.9605,-0.9605]}]]